Regional Weather Roundup
Issued by NWS

Home | Current Version | Previous Version | Graphics & Text | Print | Product List | Glossary On
Versions: 1 2 3 4 5 6 7 8 9 10 11 12 13 14 15 16 17 18 19 20 21 22 23 24 25 26 27 28 29 30 31 32 33 34 35 36 37 38 39 40 41 42 43 44 45 46 47 48 49 50
000
ASUS43 KDTX 180110
RWRMI
MICHIGAN HOURLY REGIONAL WEATHER ROUNDUP
NATIONAL WEATHER SERVICE DETROIT/PONTIAC MI
800 PM EST WED JAN 17 2018

NOTE: "FAIR" INDICATES FEW OR NO CLOUDS BELOW 12,000 FEET WITH NO
SIGNIFICANT WEATHER AND/OR OBSTRUCTION TO VISIBILITY.

MIZ047>049-052>055-059>063-066>070-074>076-081>083-180200-
SOUTHEAST LOWER MICHIGAN

CITY           SKY/WX    TMP DP  RH WIND       PRES   REMARKS
ADRIAN         FAIR      16   8  71 W10       30.31F WCI   4
ALMA           FAIR      25  16  68 SW17      30.15F WCI  11
ANN ARBOR      FAIR      19  10  68 SW16      30.25F WCI   4
BAD AXE        FAIR      23  14  70 SW18G28   30.09F WCI   8
CARO           FAIR      24  15  68 SW17G23   30.12F WCI  10
DETROIT CITY   FAIR      20  12  71 SW17G23   30.25F WCI   5
DETROIT        CLOUDY    20  11  68 SW20      30.27F WCI   4
FLINT          FAIR      22  11  62 SW14G23   30.19F WCI   9
GROSSE ILE     FAIR      18  11  74 SW9G17    30.27F WCI   7
HILLSDALE      FAIR      18   9  68 SW14      30.25F WCI   4
HOWELL         FAIR      21  13  71 SW16G24   30.20F WCI   7

CITY           SKY/WX    TMP DP  RH WIND       PRES   REMARKS
JACKSON        FAIR      18   9  68 SW17      30.24F WCI   3
LAMBERTVILLE   FAIR      18   9  70 SW12      30.31F WCI   5
LANSING        FAIR      21  14  74 SW15      30.21F WCI   8
LAPEER         FAIR      24  12  61 SW14G20   30.16F WCI  11
MASON          FAIR      22  10  60 SW9G22    30.21F WCI  12
MONROE         FAIR      18   8  65 SW15G21   30.29F WCI   4
MT. CLEMENS    MOCLDY    21  11  65 SW15G23   30.18F WCI   7
PONTIAC        FAIR      21  13  71 SW10      30.18F WCI  10
PORT HOPE        N/A     24  14  65 SW15G30   30.04F WCI  11
PORT HURON     FAIR      19  12  73 S10       30.20F WCI   8
TRI CITIES     FAIR      25  17  72 SW26G33   30.12F WCI   9
MIDLAND        FAIR      26  15  62 SW15G23   30.11F WCI  14
TROY           FAIR      22  14  72 SW10      30.24F WCI  11
SAGINAW HB     FAIR      25  18  74 SW18G25   30.13F WCI  11
$$
MIZ043>046-050>051-056>058-064>065-071>073-077>080-180200-
SOUTHWEST LOWER MICHIGAN

CITY           SKY/WX    TMP DP  RH WIND       PRES   REMARKS
BATTLE CREEK   FAIR      19   9  65 SW18      30.25F WCI   4
BENTON HARBOR  FAIR      20  11  68 SW15G24   30.31F WCI   6
BIG RAPIDS     FAIR      24  13  63 W14G21    30.10F WCI  11
COLDWATER      FAIR      16   9  76 SW14G20   30.28F WCI   1
FREMONT        FAIR      24  12  58 SW22G29   30.15F WCI   9
HOLLAND        FAIR      25  15  66 SW23      30.25S WCI  10
GRAND RAPIDS   MOCLDY    24  15  68 SW24      30.21F WCI   8
IONIA          FAIR      24  16  72 SW21G28   30.18F WCI   9
KALAMAZOO      FAIR      18   9  68 SW16G25   30.27F WCI   3
LUDINGTON      FAIR      25  18  73 SW23G32   30.11F HAZE    WCI  10
MARSHALL       FAIR      18   8  66 SW16G22   30.25F WCI   3
MOUNT PLEASANT FAIR      26  15  62 SW18G28   30.10F WCI  13
MUSKEGON       MOCLDY    26  14  60 SW22G35   30.20F WCI  12
SOUTH HAVEN    FAIR      23  16  73 SW15G23   30.28S WCI  10
$$
MIZ016>042-180200-
NORTHERN LOWER MICHIGAN

CITY           SKY/WX    TMP DP  RH WIND       PRES   REMARKS
ALPENA         FAIR      24  11  57 SW14G26   29.93F WCI  12
BEAVER ISLAND  FAIR      29  19  67 SW26G40   29.88F WCI  14
BELLAIRE       FAIR      24  17  74 SW10G18   29.99F WCI  14
CADILLAC       FAIR      20  13  74 SW20G26   30.01F WCI   5
CHARLEVOIX     FAIR      27  17  67 SW17G28   29.96F WCI  14
FRANKFORT      FAIR      29  19  65 SW15G29   30.05F WCI  17
GAYLORD        FAIR      20  12  71 SW20G28   29.92F WCI   4
GRAYLING       FAIR      21   9  59 SW10      29.97F WCI  10
HARBOR SPRINGS FAIR      26  17  68 SW18G31   29.92F WCI  12
HOUGHTON LAKE  FAIR      21  12  68 SW14      30.02F WCI   8
MANISTEE       FAIR      26  16  65 SW13G20   30.09F WCI  15
OSCODA         FAIR      24  13  63 SW25G32   30.00F HAZE    WCI   7
PELLSTON       FAIR      26  16  65 SW16G28   29.89F WCI  14
ROGERS CITY    FAIR      24  11  55 SW18G28   29.87F WCI  11
TRAVERSE CITY  FAIR      26  15  63 SW12G25   29.98F WCI  16
$$
MIZ007>008-015-180200-
EASTERN UPPER MICHIGAN

CITY           SKY/WX    TMP DP  RH WIND       PRES   REMARKS
KINROSS        FAIR      24  18  77 W15G25    29.85F WCI  11
MACKINAC ISLAN FAIR      28  21  75 SW21G41   29.86F WCI  14
NEWBERRY       FAIR      20  13  73 SW14G20   29.85R WCI   7
S. S. MARIE    FAIR      24  14  65 W9        29.84F WCI  14
MUNISING         N/A     21  11  65 S13       29.84R WCI   9
$$
MIZ004>006-011>014-085-180200-
CENTRAL UPPER MICHIGAN

CITY           SKY/WX    TMP DP  RH WIND       PRES   REMARKS
MANISTIQUE     FAIR      22  10  58 SW13G22   29.88R WCI  10
ESCANABA       FAIR      18   8  65 S7        29.89S WCI   9
MENOMINEE      FAIR      22   8  55 SW13G23   29.93F WCI  10
SAWYER-GWINN   CLEAR     23   7  50 SW7       29.81R WCI  15
$$
MIZ001>003-009>011-084-180200-
WESTERN UPPER MICHIGAN

CITY           SKY/WX    TMP DP  RH WIND       PRES   REMARKS
IRON MOUNTAIN  FAIR      24   5  44 W15G30    29.85R WCI  11
HOUGHTON       FAIR      29  15  56 W21G32    29.77R WCI  16
COPPER HARBOR    N/A     31  17  56 NW10G23   29.78R WCI  22
IRONWOOD       FAIR      24  10  55 SW10G21   29.86F WCI  14
$$

ABBREVIATIONS USED IN REMARKS
   TC - TEMPERATURE IN CELSIUS
  WCI - WIND CHILL INDEX
   HX - HEAT INDEX
  VSB - VISIBILITY




USA.gov is the U.S. government's official web portal to all federal, state and local government web resources and services.